Location: Hackbridge
(51.3833°N, 0.1500°W)
Time: 22:29:30
(UTC+00:00)

STARLINK-24 - Pass Details

Date: 13 October 2019
Orbit: 550 x 553 km, 53.0° (Epoch: 15 November)

Event Time Altitude Azimuth Distance (km) Brightness Sun altitude
Rises 18:04:38 0° 215° (SW) 2,709 7.7 -8.9°
Reaches altitude 10° 18:07:03 10° 204° (SSW) 1,820 6.6 -9.3°
Maximum altitude 18:10:40 30° 143° (SE) 1,001 4.6 -9.8°
Enters shadow 18:13:30 15° 88° (E) 1,558 5.2 -10.3°
